[[{"header":{"parameterUnit":"m.s-1","parameterCategory":2,"la1":30.2991,"la2":30.254,"lo1":-89.0895,"lo2":-89.0444,"dy":0.0017,"dx":0.0017,"nx":28,"ny":28,"refTime":"2024-08-26T03:00:00:Z","depth":"0","parameterNumber":2,"parameterNumberName":"U-component_of_CURRENTS"},"data":[0,0,0,0,0,0,0,0,0,0,0,0,0,0,0,0,0,0,0,0,0,0,0,0,0,0,0,0,0,0,0,0,0,0,0,0,0,0,0,0,0,0,0,0,0,0,0,0,0,0,0,0,0,0,0,0,0,0,0.3204,0.3205,0,0.3308,0.3309,0.331,0.3436,0.3438,0.344,0.3442,0.359,0.3592,0.3594,0,0,0,0,0,0,0,0,0,0,0,0,0,0.3164,0.3164,0.3204,0.3205,0.3206,0.3307,0.3309,0.331,0.3435,0.3438,0.344,0.3443,0.3589,0.3592,0.3594,0,0,0,0,0,0,0,0,0,0,0,0,0,0.3215,0.3164,0.3203,0.3282,0.329,0.3307,0.3309,0.331,0.3435,0.3438,0.3441,0.3444,0.3589,0.3592,0.3595,0.3553,0,0,0.3604,0.3606,0,0,0,0,0,0,0,0,0.3212,0.3216,0.3269,0.3276,0.3285,0.3362,0.335,0.3394,0.3434,0.3379,0.3442,0.3445,0.3516,0.3525,0.3537,0.356,0.3566,0.3604,0.3606,0.3608,0.3609,0,0,0,0,0,0,0,0.3208,0.3213,0.3244,0.327,0.328,0.3329,0.3339,0.3359,0.3429,0.3384,0.3394,0.3405,0.3522,0.3533,0.3541,0.3568,0.3604,0.3607,0.3609,0.361,0.3631,0.363,0,0,0,0,0,0,0.3191,0.3209,0.3241,0.3247,0.3256,0.3327,0.3338,0.3334,0.3429,0.3446,0.3402,0.3411,0.3527,0.3537,0.3547,0.3582,0.3608,0.3611,0.3612,0.3632,0.3631,0.3629,0,0,0,0,0,0,0.3189,0.3192,0.3237,0.3233,0.3242,0.3324,0.3319,0.3334,0.3355,0.3442,0.3461,0.3409,0.3529,0.3543,0.3571,0.3586,0.3612,0.3615,0.3634,0.3632,0.363,0.3601,0,0,0,0,0,0,0.3187,0.319,0.3173,0.323,0.3241,0.3237,0.3316,0.3334,0.3358,0.337,0.3453,0.347,0.3533,0.3566,0.3574,0.3591,0.3617,0.3636,0.3633,0.3631,0.3604,0.3599,0.3594,0,0,0,0,0,0.3185,0.3156,0.3171,0.3175,0.3217,0.3235,0.3244,0.3314,0.3355,0.3347,0.3414,0.3468,0.3557,0.3567,0.3577,0.3595,0.3637,0.3634,0.3631,0.3606,0.36,0.3594,0,0,0,0,0,0,0.3113,0.3167,0.3186,0.3168,0.3192,0.3257,0.3261,0.3297,0.334,0.3361,0.3445,0.3464,0.3495,0.3528,0.3537,0.3588,0.3607,0.3606,0.3585,0.3579,0.3574,0.3537,0.362,0,0,0,0,0,0.3087,0.3095,0.3134,0.3118,0.313,0.3186,0.3201,0.3243,0.3293,0.3316,0.3372,0.3433,0.3484,0.3519,0.3552,0.3572,0.3589,0.3588,0.3583,0.3579,0.3551,0.3597,0.3594,0.362,0.362,0.362,0,0,0.3057,0.3085,0.3088,0.3105,0.3137,0.3154,0.3204,0.322,0.3242,0.3321,0.3359,0.3405,0.3478,0.3516,0.3533,0.3555,0.3577,0.3575,0.3572,0.3546,0.3593,0.3591,0.3589,0.3618,0.3618,0.3618,0,0,0.3017,0.3019,0.3025,0.3044,0.3082,0.3115,0.3112,0.3162,0.3192,0.3216,0.3292,0.3329,0.3401,0.346,0.3503,0.3474,0.3537,0.35,0.3467,0.3512,0.3511,0.351,0.3518,0.3519,0.3514,0.3514,0.3514,0,0.2985,0.2984,0.3021,0.3036,0.3051,0.3095,0.3099,0.3128,0.318,0.3201,0.3223,0.3324,0.3373,0.3446,0.3444,0.3466,0.3494,0.3496,0.3508,0.3508,0.3508,0.3516,0.3517,0.3512,0.3512,0.3513,0.3513,0,0.2965,0.2962,0.2961,0.3004,0.3018,0.3018,0.3068,0.3082,0.3118,0.3157,0.3202,0.3259,0.3327,0.3353,0.3395,0.3428,0.3447,0.349,0.353,0.3504,0.3514,0.3515,0.351,0.351,0.3511,0.3511,0,0,0.291,0.2943,0.2944,0.2954,0.2997,0.3008,0.3037,0.3071,0.3103,0.3137,0.318,0.3236,0.3264,0.3306,0.3365,0.3396,0.3409,0.3438,0.3442,0.3454,0.3493,0.3388,0.338,0.3479,0.3479,0.3479,0.3498,0,0.2883,0.2891,0.2918,0.2922,0.2929,0.2976,0.3001,0.3044,0.3087,0.3135,0.319,0.3244,0.3255,0.3297,0.3324,0.3404,0.3412,0.3398,0.3506,0.3507,0.3427,0.3377,0.3198,0.319,0.3499,0.35,0.35,0,0.286,0.2869,0.2864,0.2889,0.2897,0.2909,0.2961,0.2988,0.307,0.3107,0.3164,0.3221,0.3273,0.3284,0.3364,0.3367,0.3398,0.344,0.3444,0.335,0.3404,0.3266,0.3181,0.3121,0.3502,0.3502,0.3502,0,0.2816,0.2829,0.2818,0.2829,0.2871,0.288,0.2905,0.2977,0.3009,0.3095,0.3138,0.321,0.326,0.3314,0.3378,0.339,0.3459,0.3501,0.3421,0.3415,0.3276,0.3256,0.3146,0.3515,0.3515,0.3515,0.3515,0,0.2779,0.2776,0.2795,0.2796,0.2792,0.284,0.2857,0.2905,0.2982,0.3026,0.3114,0.3165,0.3271,0.3335,0.338,0.3388,0.3462,0.3375,0.3404,0.3257,0.3235,0.319,0.3175,0.3516,0.3516,0.3515,0.3515,0,0.2743,0.2753,0.2745,0.2767,0.2771,0.2775,0.282,0.2847,0.2923,0.2991,0.3021,0.3142,0.3218,0.3299,0.3397,0.3376,0.3302,0.3395,0.3187,0.3187,0.3017,0.3006,0.2803,0.2726,0.329,0.3287,0.3285,0,0.2722,0.2715,0.2715,0.2713,0.2718,0.273,0.2745,0.281,0.2846,0.2972,0.3003,0.3101,0.3152,0.3231,0.3223,0.3244,0.3206,0.3073,0.3031,0.2937,0.295,0.2872,0.2818,0.2845,0.284,0.2835,0.2831,0,0.2694,0.2695,0.2695,0.2675,0.2675,0.2675,0.27,0.2722,0.2812,0.286,0.2932,0.2981,0.3035,0.2971,0.2982,0.2979,0.2889,0.2975,0.2947,0.2612,0.2451,0.2415,0.29,0.279,0.2794,0.2797,0.28,0.2801,0.268,0.2664,0.2659,0.2631,0.2631,0.262,0.2586,0.2634,0.2661,0.2696,0.2813,0.2799,0.2774,0.2753,0.2729,0.2551,0.2603,0.246,0.2463,0.2402,0.2265,0.2622,0.2507,0.2509,0.2511,0.2513,0.2515,0,0.264,0.2631,0.2617,0.2571,0.2528,0.2548,0.2548,0.25,0.2481,0.2534,0.2553,0.2481,0.2387,0.2353,0.2195,0.2073,0.1997,0.2013,0.1881,0.1866,0.2242,0.2162,0.1881,0.1881,0.1881,0.1882,0.1882,0.1882,0.263,0.259,0.2563,0.247,0.2434,0.2339,0.231,0.2265,0.226,0.2172,0.209,0.2097,0.2097,0.1979,0.1809,0.1752,0.165,0.1504,0.1587,0.1883,0.1927,0.1968,0.189,0.1556,0.1556,0.1108,0.1104,0.1102]},{"header":{"parameterUnit":"m.s-1","parameterCategory":2,"la1":30.2991,"la2":30.254,"lo1":-89.0895,"lo2":-89.0444,"dy":0.0017,"dx":0.0017,"nx":28,"ny":28,"refTime":"2024-08-26T03:00:00:Z","depth":"0","parameterNumber":3,"parameterNumberName":"V-component_of_CURRENTS"},"data":[0,0,0,0,0,0,0,0,0,0,0,0,0,0,0,0,0,0,0,0,0,0,0,0,0,0,0,0,0,0,0,0,0,0,0,0,0,0,0,0,0,0,0,0,0,0,0,0,0,0,0,0,0,0,0,0,0,0,0.0369,0.0369,0,0.0311,0.031,0.0309,0.026,0.026,0.026,0.0259,0.0143,0.014,0.0137,0,0,0,0,0,0,0,0,0,0,0,0,0,0.042,0.042,0.0369,0.0369,0.0368,0.0311,0.031,0.0309,0.026,0.026,0.026,0.0259,0.0144,0.014,0.0137,0,0,0,0,0,0,0,0,0,0,0,0,0,0.0382,0.0419,0.0369,0.0338,0.0335,0.0311,0.031,0.0309,0.0261,0.026,0.0259,0.0259,0.0145,0.0141,0.0137,0.0122,0,0,0.0124,0.0122,0,0,0,0,0,0,0,0,0.0384,0.038,0.0343,0.034,0.0337,0.0294,0.0286,0.0244,0.0261,0.0287,0.0259,0.0259,0.019,0.0182,0.017,0.0117,0.0112,0.0124,0.0121,0.0119,0.0118,0,0,0,0,0,0,0,0.0387,0.0382,0.0344,0.0343,0.0339,0.0321,0.0315,0.0278,0.024,0.0285,0.0281,0.0278,0.0187,0.0174,0.0167,0.011,0.0124,0.012,0.0118,0.0116,0.0067,0.0068,0,0,0,0,0,0,0.0399,0.0385,0.0346,0.0343,0.0362,0.0321,0.0314,0.0307,0.0241,0.0232,0.0278,0.0276,0.0182,0.0172,0.0163,0.0175,0.0119,0.0116,0.0113,0.0066,0.0067,0.0069,0,0,0,0,0,0,0.0401,0.0396,0.0349,0.0364,0.0357,0.0321,0.0313,0.0306,0.0297,0.0237,0.0226,0.0278,0.0181,0.0168,0.0147,0.0169,0.0114,0.011,0.0065,0.0066,0.0068,0.0179,0,0,0,0,0,0,0.0402,0.0397,0.0402,0.0365,0.0357,0.0349,0.0314,0.0305,0.0297,0.0293,0.0233,0.0222,0.018,0.0154,0.0143,0.0162,0.0107,0.0063,0.0065,0.0067,0.0174,0.0184,0.0193,0,0,0,0,0,0.0404,0.0415,0.0402,0.0398,0.0362,0.035,0.0345,0.0316,0.0298,0.0304,0.0267,0.0224,0.016,0.0151,0.0138,0.0157,0.0062,0.0065,0.0067,0.017,0.0182,0.0193,0,0,0,0,0,0,0.0438,0.041,0.0395,0.0396,0.0381,0.0343,0.0347,0.0325,0.03,0.0295,0.0236,0.0223,0.0213,0.0171,0.0163,0.0151,0.0105,0.0105,0.0187,0.0198,0.0208,0.0219,0.0103,0,0,0,0,0,0.0449,0.0448,0.042,0.0421,0.0419,0.0385,0.0377,0.0358,0.0329,0.0318,0.0277,0.0237,0.0213,0.0195,0.0163,0.0153,0.0125,0.0158,0.0168,0.0176,0.0178,0.0178,0.0189,0.0077,0.0077,0.0077,0,0,0.0461,0.0447,0.0445,0.0429,0.0414,0.042,0.0379,0.0375,0.0379,0.0308,0.0302,0.0268,0.0219,0.0214,0.0205,0.0181,0.0193,0.018,0.0188,0.0184,0.0182,0.0193,0.0203,0.0079,0.0079,0.0079,0,0,0.0489,0.0475,0.0486,0.0482,0.0469,0.0451,0.0455,0.0425,0.0414,0.0407,0.0362,0.0346,0.03,0.0276,0.0257,0.0299,0.0247,0.0288,0.0343,0.0345,0.0354,0.0362,0.0343,0.0348,0.0291,0.0292,0.0292,0,0.0504,0.0512,0.049,0.0504,0.0506,0.0472,0.0489,0.0477,0.0444,0.0442,0.0421,0.0377,0.0333,0.0333,0.0347,0.0322,0.0307,0.0305,0.0359,0.0366,0.0372,0.035,0.0355,0.0297,0.0297,0.0296,0.0295,0,0.0542,0.0551,0.0561,0.0565,0.0569,0.0578,0.0562,0.0563,0.0546,0.053,0.0529,0.048,0.0451,0.0443,0.0405,0.0427,0.0397,0.0375,0.0333,0.039,0.0363,0.0366,0.0305,0.0303,0.0302,0.03,0,0,0.056,0.0582,0.0585,0.0603,0.0601,0.061,0.0626,0.0632,0.0651,0.0624,0.0648,0.0607,0.0576,0.0552,0.0507,0.0508,0.0535,0.0465,0.0462,0.0452,0.053,0.0498,0.0497,0.0529,0.053,0.0531,0.0494,0,0.0593,0.0639,0.0636,0.068,0.0703,0.0688,0.0711,0.0713,0.0709,0.0725,0.0688,0.0691,0.062,0.0616,0.0604,0.0557,0.0547,0.0546,0.0469,0.0466,0.0437,0.0501,0.0503,0.047,0.0496,0.0497,0.0497,0,0.0628,0.0655,0.0708,0.0745,0.0754,0.0778,0.0811,0.0826,0.0838,0.0836,0.0827,0.0794,0.0779,0.0722,0.0662,0.0667,0.0602,0.0564,0.0561,0.0493,0.044,0.0416,0.0473,0.0402,0.05,0.05,0.05,0,0.0661,0.0703,0.0751,0.0764,0.0802,0.0826,0.0845,0.0864,0.0894,0.0912,0.0943,0.0899,0.0895,0.0823,0.072,0.0698,0.0664,0.062,0.0526,0.0522,0.0487,0.0478,0.0471,0.0583,0.0583,0.0583,0.0583,0,0.0696,0.0734,0.0775,0.0805,0.0869,0.0875,0.0941,0.0952,0.0991,0.1053,0.1002,0.1044,0.0926,0.0883,0.0771,0.0662,0.0695,0.0547,0.0521,0.0525,0.052,0.0424,0.0367,0.0581,0.0582,0.0582,0.0582,0,0.0729,0.0753,0.0814,0.0867,0.0889,0.0938,0.1007,0.1055,0.1082,0.1165,0.1181,0.1162,0.1108,0.0977,0.0866,0.0735,0.058,0.058,0.058,0.0555,0.0385,0.0334,0.0262,0.0223,0.0469,0.0468,0.0467,0,0.0751,0.0789,0.0865,0.091,0.0939,0.1009,0.1061,0.11,0.1159,0.1248,0.13,0.1276,0.1276,0.1088,0.0867,0.0669,0.0573,0.0521,0.0473,0.0391,0.0315,0.0279,0.0249,0.0467,0.0466,0.0466,0.0465,0,0.08,0.0829,0.0883,0.0969,0.1034,0.1111,0.1191,0.1254,0.132,0.14,0.1496,0.1512,0.1333,0.1142,0.0855,0.0707,0.0468,0.0502,0.0431,0.0329,0.0276,0.0222,0.0458,0.046,0.0461,0.0461,0.0461,0.0462,0.0838,0.0882,0.0952,0.1031,0.1111,0.1208,0.1275,0.1373,0.1488,0.1614,0.1628,0.1664,0.1384,0.0999,0.0798,0.043,0.0426,0.0315,0.0263,0.0237,0.0197,0.0412,0.0377,0.0377,0.0377,0.0377,0.0377,0,0.0873,0.0925,0.1006,0.1103,0.1187,0.1222,0.1355,0.1431,0.1574,0.1695,0.1776,0.164,0.1316,0.0965,0.0467,0.0238,0.0159,0.0125,0.0087,0.0069,0.0279,0.0277,0.0204,0.0204,0.0204,0.0204,0.0204,0.0204,0.0897,0.0967,0.1004,0.114,0.1211,0.1318,0.1392,0.1529,0.1634,0.1758,0.1767,0.1749,0.1469,0.068,0.0176,0.0059,-0.0074,-0.0115,-0.0175,-0.0023,-0.0008,0.0006,-0.0006,-0.0137,-0.0138,-0.0347,-0.0349,-0.0351]}],[{"header":{"parameterUnit":"m.s-1","parameterCategory":2,"la1":30.2991,"la2":30.254,"lo1":-89.0895,"lo2":-89.0444,"dy":0.0017,"dx":0.0017,"nx":28,"ny":28,"refTime":"2024-08-26T03:00:00:Z","depth":"2","parameterNumber":2,"parameterNumberName":"U-component_of_CURRENTS"},"data":[0,0,0,0,0,0,0,0,0,0,0,0,0,0,0,0,0,0,0,0,0,0,0,0,0,0,0,0,0,0,0,0,0,0,0,0,0,0,0,0,0,0,0,0,0,0,0,0,0,0,0,0,0,0,0,0,0,0,0.2217,0.2219,0,0.2181,0.2179,0.2176,0.2207,0.221,0.2214,0.2217,0.2361,0.2362,0.2362,0,0,0,0,0,0,0,0,0,0,0,0,0,0.2141,0.2141,0.2217,0.2219,0.2221,0.2181,0.2178,0.2176,0.2206,0.221,0.2215,0.2219,0.2361,0.2362,0.2362,0,0,0,0,0,0,0,0,0,0,0,0,0,0.2124,0.2141,0.2217,0.2249,0.2253,0.2182,0.2178,0.2175,0.2205,0.2211,0.2216,0.2221,0.2361,0.2362,0.2363,0.2263,0,0,0.2365,0.2366,0,0,0,0,0,0,0,0,0.2125,0.2123,0.2243,0.2247,0.2252,0.2225,0.2206,0.2222,0.2204,0.2198,0.2217,0.2223,0.2344,0.2347,0.2291,0.227,0.2276,0.2365,0.2366,0.2366,0.2366,0,0,0,0,0,0,0,0.2126,0.2125,0.2178,0.2245,0.225,0.2208,0.221,0.2205,0.2227,0.2199,0.2207,0.224,0.2346,0.229,0.2296,0.2278,0.2365,0.2366,0.2367,0.2367,0.2379,0.2379,0,0,0,0,0,0,0.2182,0.2126,0.218,0.218,0.2227,0.2208,0.2209,0.2208,0.2223,0.2236,0.2235,0.2242,0.2286,0.2295,0.2302,0.2378,0.2366,0.2367,0.2367,0.2379,0.2379,0.2378,0,0,0,0,0,0,0.218,0.2185,0.2182,0.2173,0.2174,0.2208,0.2204,0.2206,0.2212,0.2254,0.2266,0.2253,0.229,0.2301,0.2382,0.2379,0.2367,0.2368,0.2379,0.2379,0.2379,0.241,0,0,0,0,0,0,0.2177,0.2183,0.2172,0.2176,0.2177,0.2202,0.2202,0.2202,0.2233,0.2241,0.2271,0.2285,0.2295,0.2381,0.2383,0.238,0.2369,0.2379,0.2379,0.2379,0.2409,0.2411,0.2412,0,0,0,0,0,0.2173,0.2174,0.2171,0.2178,0.2169,0.2206,0.2199,0.2224,0.223,0.2241,0.2283,0.2288,0.2378,0.2383,0.2385,0.2381,0.238,0.2379,0.2379,0.2409,0.2411,0.2412,0,0,0,0,0,0,0.2147,0.2179,0.2176,0.2187,0.2221,0.2223,0.2231,0.2239,0.2258,0.2272,0.2301,0.2319,0.2382,0.2374,0.2377,0.238,0.237,0.237,0.2392,0.2394,0.2396,0.2422,0.237,0,0,0,0,0,0.2132,0.2134,0.2174,0.2184,0.2204,0.2208,0.2217,0.2235,0.2271,0.2281,0.2314,0.2335,0.2356,0.2383,0.2397,0.2402,0.2417,0.2394,0.2395,0.2397,0.2417,0.2462,0.2471,0.2377,0.2377,0.2377,0,0,0.2125,0.2148,0.2147,0.2178,0.2188,0.2207,0.2222,0.2257,0.2273,0.2296,0.2331,0.2355,0.2364,0.2386,0.2407,0.2396,0.2423,0.2396,0.2398,0.2418,0.2463,0.2473,0.2481,0.2377,0.2377,0.2377,0,0,0.2134,0.2135,0.2142,0.2166,0.2215,0.222,0.2251,0.2275,0.2291,0.2329,0.2346,0.2394,0.2409,0.2421,0.2424,0.2438,0.2438,0.242,0.2443,0.2486,0.2495,0.2503,0.2504,0.2512,0.241,0.241,0.241,0,0.2127,0.2129,0.2155,0.2177,0.22,0.2241,0.2258,0.2266,0.2317,0.2338,0.2368,0.2398,0.2423,0.2441,0.2455,0.2444,0.2459,0.2439,0.2491,0.25,0.2508,0.2507,0.2516,0.2412,0.2411,0.2411,0.2411,0,0.2138,0.2139,0.2159,0.2184,0.221,0.2239,0.2282,0.231,0.234,0.2355,0.241,0.2438,0.2464,0.2458,0.2471,0.2512,0.2499,0.25,0.2495,0.252,0.2516,0.2525,0.2414,0.2413,0.2413,0.2412,0,0,0.2125,0.2154,0.216,0.2163,0.2212,0.224,0.2278,0.2321,0.2356,0.2396,0.244,0.2472,0.2495,0.2501,0.2504,0.2545,0.2609,0.2554,0.2555,0.2567,0.2684,0.2579,0.2578,0.2629,0.2632,0.2634,0.2648,0,0.2124,0.2147,0.2165,0.2187,0.22,0.2243,0.2276,0.2322,0.2372,0.2429,0.246,0.2508,0.2503,0.2528,0.2567,0.2612,0.2639,0.2604,0.2647,0.2647,0.2564,0.2588,0.238,0.2369,0.2657,0.2658,0.2659,0,0.2119,0.2135,0.2152,0.2179,0.2192,0.222,0.2286,0.2319,0.2401,0.2445,0.2496,0.2533,0.259,0.2595,0.2669,0.2651,0.2677,0.2704,0.2704,0.261,0.256,0.2395,0.2374,0.2674,0.2672,0.2671,0.267,0,0.209,0.212,0.2131,0.2142,0.219,0.2218,0.2253,0.233,0.2368,0.2468,0.2514,0.2576,0.2621,0.2675,0.2717,0.2712,0.2802,0.279,0.2707,0.2697,0.2531,0.2503,0.2854,0.2854,0.2854,0.2854,0.2854,0,0.2072,0.2078,0.2125,0.2132,0.2158,0.2205,0.2254,0.2306,0.2393,0.244,0.252,0.2563,0.2658,0.2707,0.2738,0.2737,0.2807,0.2723,0.2707,0.2528,0.2502,0.278,0.2771,0.2855,0.2855,0.2855,0.2855,0,0.2035,0.2062,0.2071,0.2123,0.2143,0.2167,0.2241,0.2282,0.237,0.2439,0.2474,0.2579,0.2639,0.2693,0.2782,0.2745,0.2769,0.275,0.2511,0.2467,0.2627,0.2619,0.2657,0.2654,0.2651,0.2649,0.2647,0,0.2012,0.2017,0.2057,0.2072,0.21,0.2145,0.2179,0.2265,0.2308,0.2428,0.2454,0.2549,0.2576,0.2634,0.2623,0.2624,0.2711,0.2414,0.2369,0.2632,0.2613,0.261,0.2606,0.2147,0.2141,0.2136,0.2132,0,0.1971,0.1992,0.201,0.203,0.2065,0.2085,0.2142,0.2167,0.2266,0.2313,0.2371,0.2407,0.2465,0.2371,0.2375,0.2351,0.2396,0.2313,0.2674,0.2225,0.2151,0.2132,0.2146,0.2089,0.2093,0.2097,0.2099,0.2101,0.1945,0.1934,0.196,0.1968,0.2002,0.2005,0.1992,0.2049,0.2072,0.2107,0.2216,0.2194,0.2211,0.211,0.2038,0.1985,0.2157,0.2053,0.2068,0.2089,0.2024,0.1949,0.1834,0.1837,0.1839,0.1841,0.1843,0,0.1896,0.1881,0.1891,0.1885,0.188,0.1933,0.1943,0.1901,0.1869,0.1938,0.1954,0.1791,0.1718,0.1747,0.16,0.1577,0.1571,0.1506,0.1488,0.1531,0.157,0.1479,0.1144,0.1142,0.114,0.1138,0,0,0.1868,0.1832,0.1812,0.1752,0.1766,0.1712,0.1693,0.1646,0.1644,0.1581,0.1557,0.1675,0.1711,0.1427,0.1369,0.1236,0.1379,0.1181,0.1743,0.1769,0.1805,0.1887,0.1795,0,0,0,0,0]},{"header":{"parameterUnit":"m.s-1","parameterCategory":2,"la1":30.2991,"la2":30.254,"lo1":-89.0895,"lo2":-89.0444,"dy":0.0017,"dx":0.0017,"nx":28,"ny":28,"refTime":"2024-08-26T03:00:00:Z","depth":"2","parameterNumber":3,"parameterNumberName":"V-component_of_CURRENTS"},"data":[0,0,0,0,0,0,0,0,0,0,0,0,0,0,0,0,0,0,0,0,0,0,0,0,0,0,0,0,0,0,0,0,0,0,0,0,0,0,0,0,0,0,0,0,0,0,0,0,0,0,0,0,0,0,0,0,0,0,0.0215,0.0215,0,0.0201,0.0201,0.0201,0.0173,0.0173,0.0172,0.0171,0.0095,0.0094,0.0093,0,0,0,0,0,0,0,0,0,0,0,0,0,0.0239,0.0239,0.0215,0.0215,0.0215,0.0201,0.0201,0.0201,0.0174,0.0173,0.0172,0.0171,0.0096,0.0094,0.0092,0,0,0,0,0,0,0,0,0,0,0,0,0,0.0229,0.0238,0.0215,0.0198,0.0196,0.0201,0.0201,0.0201,0.0174,0.0173,0.0172,0.0171,0.0096,0.0094,0.0092,0.0101,0,0,0.0086,0.0085,0,0,0,0,0,0,0,0,0.0229,0.0228,0.0201,0.0199,0.0197,0.0187,0.0182,0.0164,0.0174,0.0184,0.0171,0.017,0.012,0.0116,0.0119,0.0097,0.0094,0.0086,0.0085,0.0084,0.0083,0,0,0,0,0,0,0,0.023,0.0229,0.0212,0.0201,0.0198,0.0198,0.0195,0.0179,0.0158,0.0183,0.0181,0.0177,0.0118,0.0121,0.0116,0.0093,0.0086,0.0084,0.0083,0.0082,0.0043,0.0043,0,0,0,0,0,0,0.0228,0.0229,0.0212,0.0211,0.0209,0.0198,0.0195,0.0192,0.016,0.0154,0.0178,0.0175,0.0125,0.0119,0.0114,0.0102,0.0084,0.0082,0.0081,0.0043,0.0043,0.0043,0,0,0,0,0,0,0.0229,0.0227,0.0212,0.0218,0.0216,0.0199,0.0196,0.0193,0.0189,0.0156,0.0149,0.0176,0.0124,0.0116,0.0086,0.0099,0.0081,0.0079,0.0043,0.0043,0.0043,0.009,0,0,0,0,0,0,0.023,0.0228,0.0233,0.0218,0.0216,0.0212,0.0196,0.0193,0.0187,0.0184,0.0152,0.0144,0.0122,0.009,0.0084,0.0096,0.0077,0.0042,0.0043,0.0043,0.0088,0.0092,0.0095,0,0,0,0,0,0.0231,0.0238,0.0233,0.0231,0.0221,0.0212,0.0211,0.0196,0.0188,0.0189,0.016,0.0145,0.0088,0.0088,0.0082,0.0093,0.0042,0.0043,0.0043,0.0087,0.0091,0.0095,0,0,0,0,0,0,0.0252,0.0236,0.023,0.0232,0.0221,0.0206,0.0212,0.0198,0.018,0.0178,0.0143,0.0133,0.0114,0.0095,0.0095,0.0082,0.0065,0.0064,0.0101,0.0104,0.0108,0.0131,0.0076,0,0,0,0,0,0.026,0.026,0.0243,0.0245,0.0244,0.0229,0.0227,0.0215,0.0195,0.0187,0.0161,0.0136,0.0115,0.0101,0.008,0.0071,0.0057,0.0075,0.0079,0.0082,0.0097,0.008,0.0084,0.0045,0.0045,0.0045,0,0,0.0269,0.026,0.0261,0.025,0.0246,0.0251,0.0226,0.0224,0.0227,0.0181,0.0176,0.0145,0.0113,0.0102,0.0093,0.0086,0.0083,0.0082,0.0085,0.0099,0.0081,0.0085,0.0088,0.0045,0.0045,0.0045,0,0,0.0289,0.0282,0.0291,0.0286,0.0277,0.027,0.0268,0.0253,0.0245,0.0232,0.0201,0.0175,0.0146,0.0126,0.0112,0.0121,0.0101,0.0116,0.0154,0.0138,0.0142,0.0144,0.0125,0.0126,0.0119,0.012,0.012,0,0.03,0.0309,0.0292,0.0301,0.0304,0.0279,0.0293,0.0286,0.0259,0.0257,0.0235,0.0194,0.0161,0.015,0.0152,0.0131,0.0118,0.0142,0.0144,0.0146,0.0148,0.0128,0.0129,0.0122,0.0122,0.0121,0.0121,0,0.0328,0.0336,0.0343,0.0347,0.0348,0.0354,0.0341,0.0339,0.0324,0.0312,0.0294,0.0247,0.0224,0.0208,0.0182,0.0184,0.0169,0.0149,0.0137,0.0155,0.0132,0.0132,0.0125,0.0124,0.0124,0.0123,0,0,0.0344,0.036,0.0363,0.0377,0.0374,0.0379,0.0388,0.0388,0.0402,0.0367,0.0378,0.0329,0.0304,0.0287,0.0248,0.0232,0.0226,0.0204,0.0202,0.0192,0.0192,0.0171,0.0168,0.0208,0.0209,0.0209,0.0168,0,0.0371,0.0404,0.0402,0.0434,0.0452,0.0439,0.0453,0.045,0.044,0.0443,0.0397,0.039,0.0334,0.0327,0.03,0.0249,0.0228,0.0239,0.017,0.0168,0.0153,0.0168,0.0187,0.0152,0.0167,0.0167,0.0167,0,0.0396,0.0417,0.0459,0.0486,0.0494,0.0511,0.0535,0.0543,0.0538,0.0531,0.051,0.0476,0.0446,0.0398,0.0321,0.0332,0.0271,0.0225,0.0222,0.019,0.0147,0.0136,0.015,0.0166,0.0166,0.0166,0.0166,0,0.042,0.0453,0.0493,0.0502,0.053,0.0551,0.0566,0.0573,0.0595,0.0594,0.0609,0.0556,0.0542,0.0462,0.0358,0.0346,0.0275,0.0241,0.0162,0.0159,0.0157,0.0153,0.0191,0.0191,0.0191,0.0191,0.0191,0,0.0445,0.0473,0.0512,0.0535,0.0587,0.0592,0.0645,0.0649,0.0674,0.0715,0.0661,0.0676,0.056,0.05,0.0394,0.0281,0.0298,0.0178,0.0152,0.0172,0.017,0.0168,0.0166,0.019,0.019,0.019,0.0191,0,0.046,0.0484,0.0531,0.058,0.0601,0.0639,0.0702,0.074,0.0755,0.0809,0.0817,0.0776,0.0701,0.0572,0.0445,0.0336,0.0224,0.0176,0.0205,0.0183,0.0108,0.0109,0.0089,0.0088,0.0087,0.0087,0.0086,0,0.047,0.0499,0.057,0.0609,0.0636,0.0696,0.0743,0.0778,0.0826,0.0871,0.0902,0.0854,0.0823,0.0623,0.0439,0.0257,0.0223,0.0141,0.0115,0.0124,0.01,0.0102,0.0104,0.0125,0.0125,0.0125,0.0125,0,0.0491,0.0519,0.0565,0.0646,0.0707,0.0776,0.0848,0.0901,0.0952,0.0999,0.1044,0.1026,0.0852,0.0676,0.0426,0.0295,0.0171,0.013,0.0142,0.0148,0.0155,0.0132,0.0133,0.0123,0.0123,0.0123,0.0123,0.0124,0.0507,0.0541,0.0607,0.0682,0.0756,0.0847,0.0911,0.0989,0.1073,0.1145,0.1134,0.1109,0.0917,0.0599,0.0386,0.016,0.017,0.0077,0.0079,0.0081,0.0092,0.0097,0.0057,0.0057,0.0056,0.0056,0.0056,0,0.0523,0.0567,0.0638,0.0731,0.0814,0.0856,0.0973,0.1035,0.1135,0.1198,0.1228,0.1039,0.0849,0.0623,0.0303,0.0104,0.0087,0.0025,0.0057,0.006,0.0063,0.0074,0.0033,0.0032,0.0031,0.0031,0,0,0.0534,0.0594,0.063,0.0758,0.0834,0.0943,0.1014,0.1106,0.117,0.1215,0.1207,0.118,0.092,0.0676,0.0415,0.023,0.0184,0.0181,0.0223,0.0295,0.03,0.0116,0.014,0,0,0,0,0]}],[{"header":{"parameterUnit":"m.s-1","parameterCategory":2,"la1":30.2991,"la2":30.254,"lo1":-89.0895,"lo2":-89.0444,"dy":0.0017,"dx":0.0017,"nx":28,"ny":28,"refTime":"2024-08-26T03:00:00:Z","depth":"4","parameterNumber":2,"parameterNumberName":"U-component_of_CURRENTS"},"data":[0,0,0,0,0,0,0,0,0,0,0,0,0,0,0,0,0,0,0,0,0,0,0,0,0,0,0,0,0,0,0,0,0,0,0,0,0,0,0,0,0,0,0,0,0,0,0,0,0,0,0,0,0,0,0,0,0,0,0.1046,0.1046,0,0.1058,0.1057,0.1057,0.1053,0.1053,0.1053,0.1053,0.1034,0.1033,0.1033,0,0,0,0,0,0,0,0,0,0,0,0,0,0.1023,0.1023,0.1046,0.1046,0.1047,0.1058,0.1057,0.1057,0.1053,0.1053,0.1053,0.1053,0.1034,0.1033,0.1033,0,0,0,0,0,0,0,0,0,0,0,0,0,0.1031,0.1023,0.1046,0.1048,0.1049,0.1058,0.1057,0.1057,0.1053,0.1053,0.1053,0.1053,0.1034,0.1033,0.1033,0.1026,0,0,0.103,0.103,0,0,0,0,0,0,0,0,0.103,0.1031,0.1047,0.1048,0.1049,0.1057,0.1043,0.1046,0.1053,0.1048,0.1053,0.1053,0.1041,0.104,0.1037,0.1025,0.1024,0.103,0.1029,0.1029,0.1029,0,0,0,0,0,0,0,0.103,0.103,0.1047,0.1048,0.1049,0.1051,0.1051,0.1043,0.104,0.1048,0.1049,0.1056,0.1041,0.1038,0.1036,0.1024,0.103,0.1029,0.1029,0.1028,0.1094,0.1096,0,0,0,0,0,0,0.1035,0.103,0.1046,0.1047,0.1044,0.1051,0.1052,0.1051,0.1041,0.1041,0.1056,0.1056,0.1039,0.1037,0.1036,0.1094,0.1029,0.1028,0.1028,0.1092,0.1094,0.1097,0,0,0,0,0,0,0.1034,0.1036,0.1046,0.1042,0.1044,0.1052,0.1051,0.1052,0.1083,0.1048,0.1046,0.109,0.1039,0.1037,0.1056,0.1091,0.1028,0.1027,0.1089,0.1092,0.1096,0.1168,0,0,0,0,0,0,0.1033,0.1035,0.1054,0.1042,0.1045,0.1072,0.1052,0.1052,0.1086,0.1087,0.1077,0.1073,0.1039,0.1058,0.1056,0.1089,0.1026,0.1086,0.109,0.1094,0.1163,0.1173,0.1182,0,0,0,0,0,0.1032,0.1047,0.1054,0.1058,0.1064,0.1074,0.1076,0.1078,0.1089,0.1106,0.1102,0.1075,0.1083,0.1059,0.1055,0.1089,0.1084,0.1089,0.1094,0.1158,0.1171,0.1182,0,0,0,0,0,0,0.1052,0.1049,0.1056,0.1072,0.1086,0.1075,0.1096,0.1105,0.1117,0.1126,0.1095,0.1091,0.1123,0.1104,0.1077,0.1124,0.1083,0.1088,0.1133,0.1145,0.1155,0.1159,0.1026,0,0,0,0,0,0.1066,0.1073,0.1078,0.1096,0.1106,0.1113,0.1127,0.1131,0.1134,0.1142,0.1135,0.1134,0.1137,0.114,0.1135,0.1157,0.115,0.1182,0.1192,0.12,0.1205,0.1234,0.1246,0.1113,0.1113,0.1113,0,0,0.1078,0.108,0.1086,0.1102,0.1112,0.1126,0.1121,0.1151,0.1166,0.1137,0.1166,0.1169,0.1153,0.1174,0.1188,0.1164,0.1236,0.1207,0.1213,0.1214,0.124,0.1253,0.1264,0.1117,0.1116,0.1116,0,0,0.1096,0.1113,0.1124,0.1138,0.1165,0.1164,0.1185,0.1198,0.1213,0.1241,0.1228,0.1258,0.1257,0.1253,0.1249,0.1317,0.129,0.1325,0.1373,0.1402,0.1412,0.1422,0.1432,0.1442,0.1327,0.1328,0.1328,0,0.1116,0.1125,0.1134,0.115,0.1165,0.1186,0.1205,0.1222,0.1242,0.1262,0.1262,0.1297,0.1291,0.1317,0.1345,0.1338,0.1345,0.1324,0.1413,0.1422,0.143,0.1439,0.1448,0.1332,0.1331,0.1331,0.133,0,0.1132,0.1152,0.1164,0.1182,0.1203,0.1227,0.1245,0.128,0.1308,0.1322,0.1375,0.1375,0.1398,0.1409,0.1396,0.1458,0.1441,0.1422,0.1378,0.1448,0.1453,0.1461,0.1338,0.1336,0.1335,0.1334,0,0,0.1136,0.1166,0.1175,0.119,0.1223,0.1238,0.1278,0.1315,0.1353,0.1389,0.1436,0.1466,0.149,0.1491,0.1491,0.1519,0.1591,0.1506,0.1506,0.1507,0.165,0.1543,0.1541,0.1591,0.1593,0.1594,0.163,0,0.1149,0.1176,0.119,0.1225,0.124,0.1274,0.1304,0.1347,0.1389,0.1441,0.1474,0.1519,0.1512,0.1543,0.1574,0.1591,0.1617,0.1582,0.1589,0.1589,0.1478,0.1549,0.16,0.1636,0.1638,0.1639,0.164,0,0.1155,0.1172,0.1204,0.1242,0.1255,0.1286,0.1349,0.1382,0.1456,0.1493,0.1552,0.158,0.1645,0.1626,0.1688,0.167,0.1674,0.1674,0.1675,0.1554,0.1498,0.1552,0.1655,0.1654,0.1653,0.1652,0.1651,0,0.1136,0.1181,0.1206,0.122,0.1268,0.1305,0.1342,0.141,0.1448,0.1543,0.1588,0.1654,0.1702,0.1728,0.1751,0.1733,0.1801,0.1768,0.1667,0.1658,0.1709,0.1698,0.1805,0.1805,0.1805,0.1805,0.1805,0,0.112,0.1144,0.121,0.1221,0.1266,0.1311,0.1371,0.1421,0.1501,0.1547,0.1625,0.1665,0.1735,0.1778,0.178,0.1755,0.1828,0.1687,0.1667,0.1739,0.1732,0.1714,0.1703,0.1806,0.1806,0.1806,0.1805,0,0.1078,0.112,0.1155,0.1226,0.1254,0.1292,0.1377,0.1415,0.1506,0.1572,0.161,0.1704,0.1757,0.1798,0.1842,0.1781,0.1773,0.1739,0.1822,0.1804,0.16,0.1593,0.1627,0.1624,0.1621,0.1619,0.1617,0,0.105,0.1067,0.1153,0.1179,0.1215,0.1281,0.1316,0.1408,0.1444,0.1572,0.159,0.1689,0.1734,0.1711,0.1762,0.1756,0.1726,0.1704,0.1646,0.1608,0.1586,0.1583,0.158,0.1612,0.1611,0.1611,0.161,0,0.0998,0.1046,0.1077,0.1132,0.1181,0.1216,0.1281,0.1298,0.1398,0.15,0.1537,0.1565,0.1616,0.1641,0.1654,0.1642,0.1713,0.1674,0.1679,0.1623,0.1591,0.1571,0.1571,0.16,0.1602,0.1603,0.1603,0,0.0971,0.098,0.1034,0.1069,0.1122,0.1128,0.1172,0.1212,0.1258,0.1398,0.1408,0.1507,0.1602,0.1582,0.1595,0.1582,0.1543,0.1474,0.1488,0.1499,0.144,0.1378,0.1317,0,0,0,0,0,0.0937,0.0933,0.0962,0.0987,0.1034,0.1062,0.1131,0.1176,0.128,0.1269,0.1335,0.1375,0.1401,0.1452,0.141,0.1525,0.1544,0.1467,0.147,0.1546,0.1557,0.1498,0,0,0,0,0,0,0.0911,0.0937,0.0932,0.0908,0.0913,0.0945,0.0983,0.1055,0.1053,0.1172,0.1196,0.1288,0.1336,0.1416,0.1386,0.1399,0.1368,0.1532,0.1528,0.154,0.155,0.1559,0.1502,0,0,0,0,0]},{"header":{"parameterUnit":"m.s-1","parameterCategory":2,"la1":30.2991,"la2":30.254,"lo1":-89.0895,"lo2":-89.0444,"dy":0.0017,"dx":0.0017,"nx":28,"ny":28,"refTime":"2024-08-26T03:00:00:Z","depth":"4","parameterNumber":3,"parameterNumberName":"V-component_of_CURRENTS"},"data":[0,0,0,0,0,0,0,0,0,0,0,0,0,0,0,0,0,0,0,0,0,0,0,0,0,0,0,0,0,0,0,0,0,0,0,0,0,0,0,0,0,0,0,0,0,0,0,0,0,0,0,0,0,0,0,0,0,0,0.0209,0.0209,0,0.02,0.02,0.02,0.0221,0.0221,0.0222,0.0222,0.0214,0.0213,0.0212,0,0,0,0,0,0,0,0,0,0,0,0,0,0.0207,0.0207,0.0209,0.0209,0.0209,0.02,0.02,0.02,0.022,0.0221,0.0222,0.0223,0.0214,0.0213,0.0212,0,0,0,0,0,0,0,0,0,0,0,0,0,0.0204,0.0207,0.0209,0.0218,0.0218,0.02,0.02,0.02,0.022,0.0221,0.0222,0.0223,0.0214,0.0213,0.0212,0.0185,0,0,0.0208,0.0208,0,0,0,0,0,0,0,0,0.0204,0.0204,0.0217,0.0217,0.0218,0.0212,0.0196,0.0195,0.022,0.022,0.0222,0.0224,0.0212,0.0211,0.0208,0.0185,0.0185,0.0208,0.0207,0.0207,0.0206,0,0,0,0,0,0,0,0.0205,0.0205,0.0206,0.0216,0.0217,0.0209,0.021,0.0196,0.0211,0.022,0.0221,0.022,0.0213,0.0209,0.0208,0.0184,0.0208,0.0207,0.0206,0.0206,0.0166,0.0166,0,0,0,0,0,0,0.0206,0.0205,0.0206,0.0206,0.0213,0.0209,0.021,0.0213,0.0211,0.0212,0.0219,0.0221,0.0211,0.0209,0.0208,0.0206,0.0207,0.0206,0.0205,0.0166,0.0166,0.0165,0,0,0,0,0,0,0.0206,0.0206,0.0206,0.0204,0.0204,0.0208,0.0211,0.0213,0.0216,0.021,0.0211,0.0222,0.0211,0.0209,0.0204,0.0205,0.0205,0.0204,0.0167,0.0166,0.0166,0.0183,0,0,0,0,0,0,0.0206,0.0207,0.0211,0.0205,0.0204,0.0205,0.021,0.0212,0.0212,0.0215,0.0212,0.0213,0.0212,0.0205,0.0202,0.0203,0.0203,0.0167,0.0166,0.0166,0.0183,0.0183,0.0184,0,0,0,0,0,0.0206,0.0211,0.0211,0.0211,0.0209,0.0205,0.0204,0.021,0.0212,0.0215,0.0213,0.0213,0.0199,0.0204,0.0201,0.0201,0.0167,0.0167,0.0166,0.0183,0.0183,0.0184,0,0,0,0,0,0,0.0216,0.0214,0.0213,0.0218,0.0215,0.0209,0.0213,0.0209,0.0208,0.0214,0.0207,0.0207,0.0203,0.0194,0.02,0.0187,0.0183,0.0182,0.0197,0.0198,0.0198,0.0216,0.0202,0,0,0,0,0,0.0217,0.0221,0.0215,0.022,0.022,0.0214,0.0212,0.0214,0.0211,0.0213,0.0209,0.0203,0.0194,0.0191,0.0184,0.0173,0.0158,0.017,0.0171,0.0171,0.0183,0.015,0.0149,0.0163,0.0163,0.0163,0,0,0.0222,0.0221,0.0224,0.0221,0.0221,0.0225,0.0216,0.0219,0.0223,0.021,0.0217,0.0204,0.0191,0.0186,0.0183,0.0181,0.0158,0.017,0.0171,0.0182,0.015,0.0148,0.0147,0.0163,0.0163,0.0163,0,0,0.0233,0.0234,0.024,0.0239,0.0238,0.0235,0.0236,0.0231,0.0232,0.0227,0.0221,0.021,0.0196,0.019,0.0183,0.0177,0.0161,0.0171,0.0188,0.0157,0.0155,0.0154,0.0129,0.0126,0.0171,0.0171,0.0171,0,0.0238,0.0248,0.0241,0.0247,0.0252,0.0241,0.0252,0.0247,0.0241,0.0241,0.0236,0.0212,0.02,0.0191,0.0193,0.0179,0.016,0.019,0.0158,0.0156,0.0155,0.0129,0.0125,0.0172,0.0172,0.0172,0.0172,0,0.0254,0.0263,0.0268,0.0276,0.0278,0.0285,0.028,0.028,0.0275,0.0269,0.0258,0.0235,0.0225,0.0211,0.0203,0.0186,0.0175,0.0162,0.016,0.0155,0.0128,0.0123,0.0173,0.0173,0.0173,0.0172,0,0,0.0262,0.0277,0.028,0.0292,0.0296,0.0301,0.0307,0.031,0.0317,0.0297,0.0299,0.0273,0.026,0.0251,0.0229,0.0201,0.0169,0.0182,0.018,0.0162,0.0102,0.0105,0.01,0.0147,0.0147,0.0146,0.0086,0,0.0278,0.0301,0.0304,0.0329,0.0342,0.0339,0.0348,0.0348,0.0341,0.0339,0.0306,0.0301,0.0274,0.0269,0.0236,0.0191,0.0158,0.0187,0.0105,0.0103,0.011,0.0095,0.0144,0.0082,0.0081,0.008,0.008,0,0.0291,0.0307,0.0337,0.0362,0.0368,0.0384,0.0401,0.0408,0.0398,0.0391,0.0373,0.0349,0.0316,0.0288,0.0206,0.0225,0.017,0.0127,0.0123,0.0121,0.0098,0.0088,0.0071,0.0072,0.0073,0.0073,0.0074,0,0.0301,0.0329,0.0359,0.0367,0.0392,0.0409,0.0424,0.0427,0.0441,0.0429,0.0433,0.0384,0.0366,0.0289,0.0207,0.0204,0.011,0.0091,0.0039,0.0039,0.0047,0.0049,0.0027,0.0027,0.0027,0.0028,0.0028,0,0.0313,0.0335,0.037,0.0386,0.0426,0.0435,0.0473,0.0476,0.0487,0.0508,0.0467,0.0463,0.0365,0.0301,0.0216,0.012,0.0114,0.0045,0.0023,0.0055,0.0058,0.0043,0.0046,0.0025,0.0026,0.0026,0.0027,0,0.0314,0.0337,0.0373,0.0414,0.0433,0.0462,0.0513,0.0536,0.0544,0.0567,0.0568,0.0521,0.0443,0.0338,0.0213,0.0142,0.0042,0.0006,0.0056,0.0037,-0.0011,-0.0007,-0.0057,-0.0057,-0.0058,-0.0058,-0.0058,0,0.0314,0.0335,0.0395,0.0426,0.0449,0.0498,0.0534,0.0562,0.059,0.0602,0.0612,0.0554,0.0508,0.0338,0.0222,0.0061,0.0035,-0.002,-0.0022,-0.0003,-0.002,-0.0015,-0.0011,-0.0059,-0.0059,-0.0059,-0.0059,0,0.0315,0.0342,0.0375,0.044,0.0489,0.0543,0.0597,0.0622,0.0656,0.0663,0.065,0.0569,0.0481,0.0346,0.0223,0.0104,0.0014,-0.0025,-0.0025,-0.0027,-0.0006,-0.0021,-0.0017,-0.006,-0.006,-0.006,-0.006,0,0.0318,0.0341,0.0393,0.0449,0.0512,0.0573,0.0603,0.0641,0.0671,0.0686,0.0678,0.0587,0.0534,0.0368,0.0253,0.0141,0.0107,0.006,0.0055,0.0055,0.0104,0.0148,0.0125,0,0,0,0,0,0.0316,0.0348,0.0398,0.0466,0.0529,0.0572,0.0639,0.0665,0.0699,0.0695,0.0691,0.061,0.0453,0.0384,0.0272,0.0235,0.008,0.0098,0.0021,-0.0067,-0.0065,-0.0026,0,0,0,0,0,0,0.0317,0.0363,0.0393,0.0471,0.052,0.0596,0.0643,0.0669,0.0669,0.0683,0.0601,0.0572,0.0418,0.0516,0.0267,0.0234,0.0166,0.0029,0.0026,-0.0067,-0.0066,-0.0065,-0.0024,0,0,0,0,0]}]]